TimeCDT,TemperatureF,Dew PointF,Humidity,Sea Level PressureIn,VisibilityMPH,Wind Direction,Wind SpeedMPH,Gust SpeedMPH,PrecipitationIn,Events,Conditions,WindDirDegrees,DateUTC
12:15 AM,44.6,23.0,43,29.95,10.0,SE,16.1,-,N/A,,Clear,140,2013-03-19 05:15:00
12:35 AM,42.8,24.8,49,29.96,10.0,SE,12.7,-,N/A,,Clear,140,2013-03-19 05:35:00
12:55 AM,42.8,24.8,49,29.96,10.0,SSE,12.7,-,N/A,,Clear,150,2013-03-19 05:55:00
1:15 AM,42.8,26.6,53,29.97,10.0,SSE,12.7,-,N/A,,Clear,150,2013-03-19 06:15:00
1:35 AM,41.0,26.6,57,29.97,10.0,SE,11.5,-,N/A,,Clear,140,2013-03-19 06:35:00
1:55 AM,39.2,26.6,61,29.97,10.0,SSE,9.2,-,N/A,,Clear,150,2013-03-19 06:55:00
2:15 AM,37.4,26.6,65,29.97,10.0,SE,8.1,-,N/A,,Clear,140,2013-03-19 07:15:00
2:35 AM,37.4,26.6,65,29.98,10.0,ENE,4.6,-,N/A,,Clear,60,2013-03-19 07:35:00
2:55 AM,37.4,26.6,65,29.98,10.0,East,4.6,-,N/A,,Clear,80,2013-03-19 07:55:00
3:15 AM,35.6,26.6,70,29.98,10.0,East,3.5,-,N/A,,Clear,90,2013-03-19 08:15:00
3:35 AM,37.4,26.6,65,29.98,10.0,Calm,Calm,-,N/A,,Clear,0,2013-03-19 08:35:00
3:55 AM,35.6,26.6,70,29.98,10.0,ENE,3.5,-,N/A,,Clear,70,2013-03-19 08:55:00
4:15 AM,35.6,26.6,70,29.98,10.0,ENE,3.5,-,N/A,,Clear,70,2013-03-19 09:15:00
4:35 AM,35.6,26.6,70,29.97,10.0,Calm,Calm,-,N/A,,Clear,0,2013-03-19 09:35:00
4:55 AM,33.8,26.6,75,29.97,10.0,ENE,4.6,-,N/A,,Clear,70,2013-03-19 09:55:00
5:15 AM,33.8,26.6,75,29.97,10.0,East,4.6,-,N/A,,Clear,80,2013-03-19 10:15:00
5:35 AM,33.8,26.6,75,29.98,10.0,ENE,4.6,-,N/A,,Clear,70,2013-03-19 10:35:00
5:55 AM,32.0,26.6,80,29.99,10.0,ENE,4.6,-,N/A,,Clear,60,2013-03-19 10:55:00
6:15 AM,33.8,26.6,75,29.99,10.0,ENE,3.5,-,N/A,,Clear,60,2013-03-19 11:15:00
6:55 AM,33.8,26.6,75,30.00,10.0,Calm,Calm,-,N/A,,Clear,0,2013-03-19 11:55:00
7:15 AM,32.0,26.6,80,30.01,10.0,Calm,Calm,-,N/A,,Clear,0,2013-03-19 12:15:00
7:35 AM,33.8,26.6,75,30.01,10.0,East,3.5,-,N/A,,Clear,100,2013-03-19 12:35:00
7:55 AM,33.8,26.6,75,30.01,10.0,East,4.6,-,N/A,,Clear,90,2013-03-19 12:55:00
8:15 AM,33.8,28.4,81,30.02,10.0,Calm,Calm,-,N/A,,Clear,0,2013-03-19 13:15:00
8:35 AM,33.8,28.4,81,30.03,10.0,Calm,Calm,-,N/A,,Clear,0,2013-03-19 13:35:00
8:55 AM,35.6,28.4,75,30.03,10.0,Calm,Calm,-,N/A,,Clear,0,2013-03-19 13:55:00
9:15 AM,35.6,28.4,75,30.04,10.0,Calm,Calm,-,N/A,,Clear,0,2013-03-19 14:15:00
9:35 AM,37.4,28.4,70,30.05,10.0,NE,4.6,-,N/A,,Clear,50,2013-03-19 14:35:00
9:55 AM,41.0,28.4,61,30.06,10.0,ENE,6.9,-,N/A,,Clear,70,2013-03-19 14:55:00
10:15 AM,41.0,30.2,65,30.05,10.0,ENE,6.9,-,N/A,,Clear,70,2013-03-19 15:15:00
10:35 AM,42.8,30.2,61,30.06,10.0,Calm,Calm,-,N/A,,Clear,0,2013-03-19 15:35:00
10:55 AM,48.2,32.0,54,30.06,10.0,SSE,11.5,-,N/A,,Clear,160,2013-03-19 15:55:00
11:15 AM,50.0,30.2,47,30.08,10.0,South,9.2,-,N/A,,Clear,180,2013-03-19 16:15:00
11:35 AM,50.0,30.2,47,30.07,10.0,South,11.5,-,N/A,,Clear,170,2013-03-19 16:35:00
11:55 AM,51.8,28.4,41,30.09,10.0,South,10.4,-,N/A,,Clear,180,2013-03-19 16:55:00
12:15 PM,51.8,28.4,41,30.09,10.0,SSE,8.1,-,N/A,,Clear,160,2013-03-19 17:15:00
12:35 PM,51.8,30.2,44,30.09,10.0,SE,5.8,-,N/A,,Clear,140,2013-03-19 17:35:00
12:55 PM,51.8,30.2,44,30.09,10.0,South,6.9,-,N/A,,Clear,170,2013-03-19 17:55:00
1:15 PM,51.8,30.2,44,30.09,10.0,SSE,5.8,-,N/A,,Clear,150,2013-03-19 18:15:00
1:35 PM,51.8,28.4,41,30.10,10.0,Calm,Calm,-,N/A,,Clear,0,2013-03-19 18:35:00
1:55 PM,53.6,30.2,41,30.11,10.0,Calm,Calm,-,N/A,,Clear,0,2013-03-19 18:55:00
2:35 PM,53.6,30.2,41,30.10,10.0,Calm,Calm,-,N/A,,Clear,0,2013-03-19 19:35:00
2:55 PM,55.4,30.2,38,30.09,10.0,North,4.6,-,N/A,,Clear,350,2013-03-19 19:55:00
3:15 PM,55.4,30.2,38,30.09,10.0,NNE,4.6,-,N/A,,Clear,30,2013-03-19 20:15:00
3:35 PM,53.6,30.2,41,30.09,10.0,NNE,5.8,-,N/A,,Clear,30,2013-03-19 20:35:00
3:55 PM,55.4,30.2,38,30.09,10.0,NNE,5.8,-,N/A,,Unknown,20,2013-03-19 20:55:00
4:15 PM,55.4,30.2,38,30.09,10.0,NNE,3.5,-,N/A,,Clear,30,2013-03-19 21:15:00
4:35 PM,55.4,30.2,38,30.10,10.0,NE,5.8,-,N/A,,Clear,40,2013-03-19 21:35:00
4:55 PM,55.4,30.2,38,30.10,10.0,NNE,6.9,-,N/A,,Clear,30,2013-03-19 21:55:00
5:15 PM,55.4,30.2,38,30.10,10.0,NE,9.2,-,N/A,,Scattered Clouds,50,2013-03-19 22:15:00
5:35 PM,55.4,28.4,36,30.10,10.0,NE,11.5,17.3,N/A,,Scattered Clouds,40,2013-03-19 22:35:00
5:55 PM,55.4,26.6,33,30.11,10.0,NE,13.8,-,N/A,,Mostly Cloudy,40,2013-03-19 22:55:00
6:15 PM,55.4,26.6,33,30.11,10.0,NNE,12.7,-,N/A,,Scattered Clouds,30,2013-03-19 23:15:00
6:35 PM,55.4,26.6,33,30.12,10.0,NNE,11.5,-,N/A,,Scattered Clouds,30,2013-03-19 23:35:00
6:55 PM,53.6,21.2,28,30.12,10.0,NNE,16.1,20.7,N/A,,Mostly Cloudy,20,2013-03-19 23:55:00
7:15 PM,53.6,17.6,24,30.14,10.0,NNE,11.5,-,N/A,,Overcast,20,2013-03-20 00:15:00
7:35 PM,51.8,17.6,26,30.14,10.0,NNE,11.5,-,N/A,,Scattered Clouds,30,2013-03-20 00:35:00
7:55 PM,51.8,19.4,28,30.15,10.0,NNE,9.2,-,N/A,,Clear,20,2013-03-20 00:55:00
8:15 PM,50.0,21.2,32,30.16,10.0,NNE,6.9,-,N/A,,Clear,30,2013-03-20 01:15:00
8:35 PM,46.4,21.2,37,30.16,10.0,NNE,4.6,-,N/A,,Clear,30,2013-03-20 01:35:00
8:55 PM,46.4,19.4,34,30.17,10.0,NE,3.5,-,N/A,,Clear,50,2013-03-20 01:55:00
9:15 PM,46.4,19.4,34,30.18,10.0,NE,3.5,-,N/A,,Clear,50,2013-03-20 02:15:00
9:35 PM,46.4,21.2,37,30.19,10.0,NE,3.5,-,N/A,,Clear,50,2013-03-20 02:35:00
10:15 PM,44.6,21.2,39,30.21,10.0,NNE,4.6,-,N/A,,Clear,20,2013-03-20 03:15:00
10:35 PM,44.6,23.0,43,30.22,10.0,NNE,8.1,-,N/A,,Clear,30,2013-03-20 03:35:00
10:55 PM,44.6,19.4,37,30.23,10.0,NE,6.9,-,N/A,,Clear,40,2013-03-20 03:55:00
11:15 PM,44.6,17.6,34,30.24,10.0,NE,5.8,-,N/A,,Clear,50,2013-03-20 04:15:00
11:35 PM,42.8,15.8,34,30.25,10.0,ENE,4.6,-,N/A,,Clear,60,2013-03-20 04:35:00
11:55 PM,42.8,15.8,34,30.26,10.0,ENE,3.5,-,N/A,,Clear,60,2013-03-20 04:55:00